METEOR 2-17 DEB

Satellite information

Favourite Embed

Satellite Type and Status

DEBRISIN ORBIT

Key statistics

Satellite METEOR 2-17 DEB at a glance.

Uptime

13615

Days in orbit

Revolutions

≈ 14.0

Per day

Orbit

LEO

Low Earth Orbit

Inclination

82.5

Latest

Satellite identification and parameters

Extended collection of information and parameters for METEOR 2-17 DEB.

Object identification

Identified? True

Debris? True

Object name: METEOR 2-17 DEB

International designator: 1988-005AE

Object number (NORAD): 35370

Object ID (CCSDS): 35370

Country: COMMONWEALTH OF INDEPENDENT STATES (CIS)

Current information (Y/N): Y

RCS size: SMALL

Orbital parameters

Period: 102.875 minutes

Inclination: 82.5243 deg

SMA: 7272.768 km

Apoapsis: 909.126 km

Periapsis: 880.14 km

RAAN: 228.6698 deg

Eccentricy: 0.0019928

Argument of periapsis: 24.8517 deg

Mean anomaly: 34.3898 deg

Mean motion: 13.99758729 rev/day

Mean motion (dot): 0.00003007 rev/day2

B* drag term: 0.0020407 1/REarth

Two-line elements (TLE)

Creation date: May 9, 2025, 2:46 a.m.

Reference frame: TEME

Reference center: EARTH

Epoch: May 8, 2025, 1:35 p.m. UTC

TLE line 0: 0 METEOR 2-17 DEB

TLE line 1: 1 35370U 88005AE 25128.56648355 .00003007 00000-0 20407-2 0 9994

TLE line 2: 2 35370 82.5243 228.6698 0019928 24.8517 34.3898 13.99758729908430

Live tracking on map

Real-time ground track for satellite METEOR 2-17 DEB.

In-orbit conjunctions

A list of the most updated potential collisions computed for object METEOR 2-17 DEB.

Target Orbit TCA Probability of collision Miss distance Type
FENGYUN 1C DEB SSO 2025-03-09 15:20:43 0.000455287 4.0 (m) DEBRIS
ATLAS D DEB SSO 2024-10-01 15:05:40 0.0001262778 153.0 (m) DEBRIS

Associated space launch

Second generation soviet meteorological satellite

METEOR 2-17 DEB was lifted into orbit during the mission ‘Tsiklon-3 | Meteor-2 17’, on board a Tsiklon-3 space rocket.

The launch took place on Jan. 30, 1988, 10:59 a.m. from 32/1.

For more information about the launch, click the button.

Launch to space Tsiklon-3 | Meteor-2 17
Tsiklon-3 | Meteor-2 17

Agency: N/A

Status: Launch Successful

Launch date: Jan. 30, 1988, 10:59 a.m. UTC

Rocket: Tsiklon-3

Launch pad: 32/1

Location: Plesetsk Cosmodrome, Russian Federation

...

Latest news about this satellite

There are no fresh news available about this satellite. Check back as we update our databases every day.


Newsletter sign-up

Weekly statistics, charts and insights to help you stay on top of the space industry.